Weather History for KWWD - October, 2010

Change the Weather History Date:

Saturday, October 16, 2010

  Actual Average Record
Temperature  
Mean Temperature 58 °F -  
Max Temperature 60 °F 63 °F 82 °F (2008)
Min Temperature 55 °F 48 °F 37 °F (2006)
Degree Days  
Heating Degree Days 8    
Growing Degree Days 8 (Base 50)    
Moisture  
Dew Point 40 °F    
Average Humidity 54    
Maximum Humidity 67    
Minimum Humidity 42    
Precipitation  
Precipitation 0.00 in - - ()
Sea Level Pressure  
Sea Level Pressure 29.84 in    
Wind  
Wind Speed 14 mph (WNW)    
Max Wind Speed 18 mph    
Max Gust Speed 33 mph    
Visibility 10 miles    
Events      
Averages and records for this station are not official NWS values.
T = Trace of Precipitation, MM = Missing Value Source: NWS Daily Summary

Daily Weather History Graph

Daily Weather History Graph

Search for Another Location

Airport or City:

Trip Planner

Search our weather history database for the weather conditions in past years. The results will help you decide how hot, cold, wet, or windy it might be!

Date:

Astronomy

Oct. 16, 2010 Rise Set
Actual Time 7:10 AM EDT 6:19 PM EDT
Civil Twilight 6:43 AM EDT 6:46 PM EDT
Nautical Twilight 6:12 AM EDT 7:17 PM EDT
Astronomical Twilight 5:41 AM EDT 7:48 PM EDT
Moon 3:08 PM EDT (10/16) 1:04 AM EDT (10/16)
Length of Visible Light 12h 03m
Length of Day
11h 09m
Waxing Gibbous, 67% of the Moon is Illuminated
Oct 16
Waxing Gibbous
Oct 22
Full
Oct 30
Last Quarter
Nov 6
New
Nov 13
First Quarter

Hourly Weather History & Observations

Time (EDT) Temp. Dew Point Humidity Pressure Visibility Wind Dir Wind Speed Gust Speed Precip Events Conditions
12:15 AM 57.2 °F 39.2 °F 51% 29.72 in 10.0 mi WNW 12.7 mph 31.1 mph N/A   Mostly Cloudy
12:35 AM 57.2 °F 39.2 °F 51% 29.72 in 10.0 mi WNW 15.0 mph 27.6 mph N/A   Mostly Cloudy
12:55 AM 57.2 °F 39.2 °F 51% 29.73 in 10.0 mi WNW 17.3 mph 28.8 mph N/A   Mostly Cloudy
1:15 AM 55.4 °F 39.2 °F 54% 29.73 in 10.0 mi WNW 15.0 mph 27.6 mph N/A   Mostly Cloudy
1:35 AM 55.4 °F 39.2 °F 54% 29.73 in 10.0 mi WNW 13.8 mph 26.5 mph N/A   Mostly Cloudy
1:55 AM 55.4 °F 39.2 °F 54% 29.74 in 10.0 mi WNW 18.4 mph 28.8 mph N/A   Mostly Cloudy
2:15 AM 55.4 °F 39.2 °F 54% 29.74 in 10.0 mi WNW 18.4 mph 31.1 mph N/A   Overcast
2:35 AM 55.4 °F 39.2 °F 54% 29.74 in 10.0 mi WNW 17.3 mph 33.4 mph N/A   Mostly Cloudy
2:55 AM 55.4 °F 39.2 °F 54% 29.74 in 10.0 mi WNW 18.4 mph 33.4 mph N/A   Scattered Clouds
3:15 AM 55.4 °F 39.2 °F 54% 29.75 in 10.0 mi WNW 17.3 mph 27.6 mph N/A   Partly Cloudy
3:35 AM 55.4 °F 39.2 °F 54% 29.75 in 10.0 mi WNW 13.8 mph 21.9 mph N/A   Scattered Clouds
3:55 AM 55.4 °F 39.2 °F 54% 29.75 in 10.0 mi WNW 17.3 mph 24.2 mph N/A   Mostly Cloudy
4:15 AM 55.4 °F 39.2 °F 54% 29.75 in 10.0 mi WNW 16.1 mph 24.2 mph N/A   Partly Cloudy
4:35 AM 55.4 °F 39.2 °F 54% 29.75 in 10.0 mi WNW 12.7 mph 28.8 mph N/A   Partly Cloudy
4:55 AM 55.4 °F 39.2 °F 54% 29.76 in 10.0 mi WNW 18.4 mph 25.3 mph N/A   Scattered Clouds
5:15 AM 55.4 °F 39.2 °F 54% 29.77 in 10.0 mi WNW 15.0 mph 26.5 mph N/A   Mostly Cloudy
5:35 AM 55.4 °F 39.2 °F 54% 29.78 in 10.0 mi WNW 17.3 mph 25.3 mph N/A   Overcast
5:55 AM 55.4 °F 39.2 °F 54% 29.79 in 10.0 mi WNW 15.0 mph 25.3 mph N/A   Mostly Cloudy
6:15 AM 55.4 °F 39.2 °F 54% 29.80 in 10.0 mi WNW 12.7 mph 23.0 mph N/A   Mostly Cloudy
6:55 AM 55.4 °F 39.2 °F 54% 29.81 in 10.0 mi West 16.1 mph 25.3 mph N/A   Clear
7:15 AM 55.4 °F 39.2 °F 54% 29.81 in 10.0 mi WNW 16.1 mph 28.8 mph N/A   Clear
7:35 AM 55.4 °F 39.2 °F 54% 29.82 in 10.0 mi WNW 15.0 mph 24.2 mph N/A   Clear
7:55 AM 55.4 °F 39.2 °F 54% 29.83 in 10.0 mi WNW 15.0 mph 28.8 mph N/A   Clear
8:15 AM 55.4 °F 37.4 °F 51% 29.84 in 10.0 mi WNW 18.4 mph 26.5 mph N/A   Clear
8:35 AM 55.4 °F 37.4 °F 51% 29.85 in 10.0 mi WNW 16.1 mph 25.3 mph N/A   Clear
8:55 AM 55.4 °F 37.4 °F 51% 29.86 in 10.0 mi WNW 18.4 mph 27.6 mph N/A   Clear
9:15 AM 55.4 °F 37.4 °F 51% 29.86 in 10.0 mi WNW 18.4 mph 27.6 mph N/A   Clear
9:35 AM 55.4 °F 37.4 °F 51% 29.87 in 10.0 mi WNW 16.1 mph 27.6 mph N/A   Clear
9:55 AM 57.2 °F 37.4 °F 48% 29.87 in 10.0 mi WNW 13.8 mph 26.5 mph N/A   Clear
10:15 AM 57.2 °F 37.4 °F 48% 29.87 in 10.0 mi WNW 18.4 mph 29.9 mph N/A   Clear
10:35 AM 57.2 °F 35.6 °F 44% 29.88 in 10.0 mi NW 15.0 mph 29.9 mph N/A   Clear
10:55 AM 57.2 °F 35.6 °F 44% 29.88 in 10.0 mi NW 17.3 mph 29.9 mph N/A   Clear
5:35 PM 60.8 °F 37.4 °F 42% 29.91 in 10.0 mi NW 9.2 mph 20.7 mph N/A   Clear
7:35 PM 59.0 °F 41.0 °F 51% 29.94 in 10.0 mi NW 9.2 mph - N/A   Clear
8:55 PM 57.2 °F 41.0 °F 55% 29.95 in 10.0 mi WNW 5.8 mph - N/A   Clear
9:15 PM 57.2 °F 42.8 °F 59% 29.96 in 10.0 mi WNW 4.6 mph - N/A   Clear
9:55 PM 55.4 °F 44.6 °F 67% 29.97 in 10.0 mi WNW 4.6 mph - N/A   Clear
10:15 PM 55.4 °F 42.8 °F 63% 29.98 in 10.0 mi WNW 3.5 mph - N/A   Clear
10:35 PM 55.4 °F 42.8 °F 63% 29.98 in 10.0 mi WNW 4.6 mph - N/A   Clear
10:55 PM 55.4 °F 44.6 °F 67% 29.99 in 10.0 mi West 3.5 mph - N/A   Clear
11:15 PM 55.4 °F 44.6 °F 67% 29.99 in 10.0 mi West 3.5 mph - N/A   Clear
11:35 PM 55.4 °F 44.6 °F 67% 30.00 in 10.0 mi West 5.8 mph - N/A   Clear
11:55 PM 55.4 °F 44.6 °F 67% 30.00 in 10.0 mi WNW 4.6 mph - N/A   Clear